Regional Weather Roundup
Issued by NWS

Home | Current Version | Previous Version | Graphics & Text | Print | Product List | Glossary On
Versions: 1 2 3 4 5 6 7 8 9 10 11 12 13 14 15 16 17 18 19 20 21 22 23 24 25 26 27 28 29 30 31 32 33 34 35 36 37 38 39 40 41 42 43 44 45 46 47 48 49 50
000
ASUS43 KOAX 031410
RWRNE

WEATHER ROUNDUP FOR NEBRASKA
NATIONAL WEATHER SERVICE OMAHA NE
900 AM CDT WED JUN 03 2015

NOTES: SATELLITE DATA IS BEING USED TO AUGMENT CLOUD COVER ABOVE
       12000 FEET.
       "FAIR" INDICATES FEW OR NO CLOUDS BELOW 12,000 FEET WITH NO
       SIGNIFICANT WEATHER AND/OR OBSTRUCTIONS TO VISIBILITY.

  * THESE STATIONS DO NOT REPORT WEATHER SUCH AS RAIN...SNOW OR FOG.

NEZ001>004-019>022-054>056-031500-
NEBRASKA PANHANDLE

CITY           SKY/WX    TMP DP  RH WIND       PRES   REMARKS
SCOTTSBLUFF    SUNNY     60  52  74 W9        30.03R
ALLIANCE       SUNNY     60  53  77 VRB5      29.98S
CHADRON        SUNNY     60  54  80 MISG      30.02R
KIMBALL          N/A    N/A N/A N/A MISG        N/A
SIDNEY           N/A    N/A N/A N/A MISG      30.03R
$$

NEZ057>060-069>072-079>082-031500-
SOUTHWEST NEBRASKA

CITY           SKY/WX    TMP DP  RH WIND       PRES   REMARKS
NORTH PLATTE   LGT RAIN  63  57  81 SW15      29.95R
IMPERIAL       PTSUNNY   65  55  70 NE7       29.93R
LEXINGTON      PTSUNNY   64  60  85 N12       29.91R
MCCOOK         MOSUNNY   70  55  59 SE15      29.86R
OGALLALA       PTSUNNY   62  57  86 CALM      29.96R
$$

NEZ005>010-023>029-035>040-094-031500-
NORTH CENTRAL NEBRASKA

CITY           SKY/WX    TMP DP  RH WIND       PRES   REMARKS
VALENTINE      SUNNY     65  55  70 N13       29.95R
AINSWORTH      MOSUNNY   65  56  72 NW15      29.93R
BROKEN BOW     MOSUNNY   68  57  68 CALM      29.88R
O`NEILL        CLOUDY    67  62  84 NW6       29.88R
ORD            CLOUDY    67  60  78 NW7       29.82F
THEDFORD       SUNNY     67  59  74 N12G17    29.92R
$$

NEZ041-046>049-061>064-073>077-083>087-031500-
SOUTH CENTRAL NEBRASKA

CITY           SKY/WX    TMP DP  RH WIND       PRES   REMARKS
GRAND ISLAND   CLOUDY    62  60  93 S13G24    29.84R
AURORA         LGT RAIN  62  61  97 S21       29.78F
HASTINGS       CLOUDY    63  60  90 SE17      29.84F
HEBRON         CLOUDY    62  60  93 SE6       29.91S
HOLDREGE       MOSUNNY   65  57  73 SE18G26   29.84F
KEARNEY *      PTSUNNY   63  57  82 SE14G21   29.83F
YORK           LGT RAIN  63  61  94 S16       29.82F
$$

NEZ011>018-030>034-042>045-031500-
NORTHEAST NEBRASKA

CITY           SKY/WX    TMP DP  RH WIND       PRES   REMARKS
NORFOLK        CLOUDY    66  60  81 N7        29.81F
ALBION         CLOUDY    64  59  83 NW6       29.82R
BLAIR          LGT RAIN  63  60  90 S16       29.84F
COLUMBUS *     CLOUDY    64  57  77 W8        29.80R
FREMONT        LGT RAIN  64  61  91 SE15      29.80F
TEKAMAH        LGT RAIN  66  62  87 W10G16    29.85F
WAYNE          CLOUDY    66  61  83 W5        29.83F
$$

NEZ050>053-065>068-078-088>093-031500-
SOUTHEAST NEBRASKA

CITY           SKY/WX    TMP DP  RH WIND       PRES   REMARKS
LINCOLN        LGT RAIN  63  62  97 S12       29.87F FOG
OMAHA EPPLEY   LGT RAIN  66  63  90 S13       29.89F
BEATRICE       LGT RAIN  62  61  97 S5        29.95R
FALLS CITY     LGT RAIN  65  64  97 CALM      29.95R FOG
NEBRASKA CITY  LGT RAIN  64  64  99 W7        29.96R
PLATTSMOUTH    RAIN      63  61  92 SW8       29.96R
$$

NEZ044-045-051>053-067-031500-
OMAHA AREA

CITY           SKY/WX    TMP DP  RH WIND       PRES   REMARKS
OMAHA EPPLEY   LGT RAIN  66  63  90 S13       29.89F
BLAIR          LGT RAIN  63  60  90 S16       29.84F
FREMONT        LGT RAIN  64  61  91 SE15      29.80F
MILLARD        RAIN      64  62  93 SE8       29.87F
OFFUTT AFB     CLOUDY    65  63  94 S10       29.91F
PLATTSMOUTH    RAIN      63  61  92 SW8       29.96R
WAHOO          DRIZZLE   63  61  93 E15       29.76F
$$


USA.gov is the U.S. government's official web portal to all federal, state and local government web resources and services.